EHI
0 0 0 0 0 0 0 0 0 0 0 0 0 0 0 0 0 0 0 0 0 0 0 0 0 0 0 0 0 0 0 0 0 0 0 0 0 0
0 0 0 0 0 0 0 0 0 0 0 0 0 0 0 0 0 0 0 0 0 0 0 0 0 0 0 0 0 0 0 0 0 0 0 0 0 0
0 0 0 0 0 0 0 0 0 0 0 0 0 0 0 0 0 0 0 0 0 0 0 0 0 0 0 0 0 0 0 0 0 0 0 0 0 0
1 0 0 0 0 0 0 0 0 0 0 0 0 0 0 0 0 0 0 0 0 0 0 0 0 0 0 0 0 0 0 0 0 0 0 0 0 0
2 1 1 1 1 1 0 0 0 0 0 0 0 0 0 0 0 0 0 0 0 0 0 0 0 0 0 0 0 0 0 0 0 0 0 0 0 0
3 3 2 2 2 1 0 0 0 0 0 0 0 0 0 0 0 0 0 0 0 0 0 0 0 0 0 0 0 0 0 0 0 0 0 0 0 0
3 3 3 3 1 1 0 0 0 0 0 0 0 0 0 0 0 0 0 0 0 0 0 0 0 0 0 0 0 0 0 0 0 0 0 0 0 0
3 3 3 2 1 0 0 0 0 0 0 0 0 0 0 0 0 0 0 0 0 0 0 0 0 0 0 0 0 0 0 0 0 0 0 0 0 0
2 3 3 2 1 1 1 0 0 0 0 0 0 0 0 0 0 0 0 0 0 0 0 0 0 0 0 0 0 0 0 0 0 0 0 0 0 0
1 1 2 2 2 2 1 0 0 0 0 0 0 0 0 0 0 0 0 0 0 0 0 0 0 0 0 0 0 0 0 0 0 0 0 0 0 0
0 0 1 1 2 1 1 0 0 0 0 0 0 0 0 0 0 0 0 0 0 0 0 0 0 0 0 0 0 0 0 0 0 0 0 0 0 0
0 0 0 0 0 0 0 0 0 0 0 0 0 0 0 0 0 0 0 0 0 0 0 0 0 0 0 0 0 0 0 0 0 0 0 0 0 0
0 0 0 0 0 0 0 0 0 0 0 0 0 0 0 0 0 0 0 0 0 0 0 0 0 0 0 0 0 0 0 0 0 0 0 0 0 0
0 0 0 0 0 0 0 0 0 0 0 0 0 0 0 0 0 0 0 0 0 0 0 0 0 0 0 0 0 0 0 0 0 0 0 0 0 0
0 0 0 0 0 0 0 0 0 0 0 0 0 0 0 0 0 0 0 0 0 0 0 0 0 0 0 0 0 0 0 0 1 0 0 0 0 0
0 0 0 0 0 0 0 0 0 0 0 0 0 0 0 0 0 0 0 0 0 0 0 0 0 0 0 0 0 0 0 0 0 0 0 0 0 0
0 0 0 0 0 0 0 0 0 0 0 0 0 0 0 0 0 1 0 0 0 0 0 0 0 0 0 0 0 0 0 0 0 0 0 0 0 0
0 0 0 0 0 0 0 0 0 0 0 0 0 0 0 0 0 0 0 0 0 0 0 0 0 0 0 0 0 0 0 0 0 0 0 0 0 0
0 0 0 0 0 0 0 0 0 0 0 0 0 0 0 0 0 0 0 0 0 0 0 0 0 0 0 0 0 0 0 0 0 0 0 0 0 0
0 0 0 0 0 0 0 0 0 0 0 0 0 0 0 0 0 0 0 0 0 0 0 0 0 0 0 0 0 0 0 0 0 0 0 0 0 0
0 0 0 0 0 0 0 0 0 0 0 0 0 0 0 0 0 0 0 0 0 0 0 0 0 0 0 0 0 0 0 0 0 0 0 0 0 0
0 0 0 0 0 0 0 0 0 0 0 0 0 0 0 0 0 0 0 0 0 0 0 0 0 0 0 0 0 0 0 0 0 0 0 0 0 0
0 0 0 0 0 0 0 0 0 0 0 0 0 0 0 0 0 0 0 0 0 0 0 0 0 0 0 0 0 0 0 0 0 0 0 0 0 0
Wind_Speed
1 1 1 2 1 1 1 1 2 3 3 2 1 1 1 1 3 2 1 4 6 7 8 8 8 7 7 7 8 9 9 10 12 13 14 15 16 18
1 0 1 2 2 2 2 2 2 2 3 3 2 1 1 2 2 2 3 6 9 11 11 11 10 10 9 9 9 9 10 10 11 12 13 14 15 16
2 2 2 2 2 3 3 2 2 2 3 3 3 2 2 3 3 3 4 5 6 12 13 13 12 12 11 10 10 10 11 11 11 11 12 13 14 15
3 2 2 3 2 3 3 3 3 3 3 5 4 4 4 4 4 5 6 7 5 8 11 13 14 14 13 13 12 12 12 12 12 12 13 13 14 15
3 3 3 3 3 3 3 3 3 4 3 4 4 4 4 4 4 5 6 5 7 8 10 13 14 15 15 15 14 14 13 13 13 13 13 13 13 14
3 3 4 4 4 4 4 4 4 4 4 4 5 4 4 4 3 3 4 3 5 6 6 6 10 15 16 16 16 16 15 15 14 14 14 14 14 14
5 5 5 6 6 5 5 3 3 3 4 4 5 4 4 3 3 3 4 4 4 4 4 5 4 5 8 13 16 16 16 16 16 15 15 14 14 14
5 5 6 7 9 11 11 10 8 6 6 5 5 5 5 4 3 4 4 4 5 3 3 5 4 4 4 5 11 16 18 17 17 16 16 15 15 15
5 5 7 8 6 6 9 13 13 15 14 9 9 9 8 6 5 5 5 6 6 5 5 7 5 6 6 8 12 13 15 17 17 16 16 16 16 16
7 7 7 7 9 6 6 7 8 9 12 12 11 12 11 8 7 7 7 7 7 7 7 8 7 6 8 6 9 12 13 16 17 17 17 17 16 16
9 9 9 9 10 11 8 8 8 8 11 14 15 15 16 15 10 6 6 7 9 7 5 6 6 6 5 5 7 12 14 16 16 17 17 17 17 15
7 8 11 12 11 11 8 8 9 9 9 9 9 10 12 13 16 12 9 9 9 8 6 5 5 4 5 5 5 5 7 11 15 16 17 17 16 9
6 6 5 6 9 11 10 9 11 10 8 8 8 8 8 8 10 11 11 10 10 9 6 5 4 4 5 5 5 5 5 5 6 9 14 17 17 13
6 6 5 6 6 9 9 11 15 12 8 8 8 8 8 7 7 8 10 11 11 12 9 7 6 6 6 8 7 5 5 5 5 6 6 11 15 17
7 9 10 11 11 9 13 16 12 9 9 9 10 9 8 8 7 6 7 8 10 11 11 10 9 8 7 9 9 7 6 6 5 6 6 6 6 7
7 9 11 13 13 13 12 11 9 9 10 10 9 8 7 6 7 6 6 6 7 7 9 10 10 10 9 10 9 8 7 6 5 6 6 6 6 6
3 5 7 7 7 7 8 8 8 8 9 9 9 8 8 7 7 6 6 6 7 7 6 6 7 9 11 10 9 9 8 7 7 6 6 7 7 7
3 6 7 8 9 8 8 7 6 6 6 6 7 7 7 7 7 6 5 6 7 7 7 6 5 6 6 8 11 11 9 8 7 7 6 7 8 7
5 8 8 8 8 7 7 7 7 6 5 6 6 6 6 7 6 6 6 7 7 7 7 6 6 6 8 10 8 11 10 9 7 7 7 7 8 7
7 8 7 7 7 6 6 6 6 6 5 5 5 5 6 6 6 7 7 8 7 7 7 6 6 7 9 10 8 7 11 9 8 8 7 6 7 8
7 6 6 6 6 6 6 6 6 6 6 6 6 6 5 6 7 7 7 9 8 8 8 8 8 10 7 6 7 8 7 11 12 8 7 6 6 6
6 6 6 6 6 6 6 6 6 6 6 6 6 6 6 5 7 8 7 7 7 7 9 7 6 6 6 7 9 9 9 7 9 14 13 11 7 7
5 5 6 7 6 5 6 7 8 7 6 6 6 6 6 6 6 7 7 7 7 8 8 7 6 6 6 7 8 8 10 9 6 6 7 12 16 17
Wind_Direction
280 185 273 316 327 339 343 332 320 318 319 330 27 86 112 116 165 232 252 224 232 237 243 246 250 252 253 253 250 246 246 243 238 236 237 238 237 236
235 316 326 316 337 334 304 294 291 292 297 320 319 343 17 316 268 290 286 267 244 241 238 238 241 244 245 246 246 246 245 245 243 240 238 237 237 236
255 234 230 275 308 318 310 300 281 281 283 296 312 318 303 278 273 269 272 258 249 246 237 233 233 235 237 240 242 242 244 245 246 246 245 242 239 238
239 254 256 257 234 260 288 296 293 285 272 282 291 288 279 268 251 249 268 273 270 265 241 231 230 231 233 236 237 238 241 243 245 246 244 241 241 241
245 250 256 266 265 256 267 274 282 286 276 274 280 272 268 269 268 270 271 269 273 274 253 232 230 231 234 236 237 237 238 239 241 243 242 240 241 241
253 254 256 256 258 258 262 259 265 275 277 274 271 272 267 264 260 265 279 269 274 284 286 264 236 232 235 237 237 236 236 236 238 239 240 239 238 238
245 245 247 244 243 244 259 267 279 277 279 282 283 285 281 290 286 284 286 285 275 275 275 274 258 239 232 237 240 239 236 235 235 235 237 238 238 238
251 252 254 244 236 231 236 241 242 252 265 272 280 282 287 293 297 293 291 292 289 288 300 292 289 275 260 244 234 230 231 232 233 233 233 235 236 237
261 259 265 268 256 237 231 235 241 244 239 244 259 265 271 275 285 290 284 283 280 284 289 279 271 271 266 269 262 243 228 228 230 231 232 232 233 235
260 257 256 262 266 260 258 249 240 241 236 233 239 247 252 253 253 259 264 270 265 259 248 261 260 257 264 262 260 251 236 229 228 229 230 231 232 234
251 252 249 250 249 243 245 252 257 259 256 249 233 236 242 247 247 256 260 266 272 268 252 257 262 261 258 259 257 250 240 232 230 230 230 231 233 234
252 249 247 246 248 238 239 246 254 257 263 272 263 252 248 248 241 234 241 252 262 267 255 256 265 272 275 259 257 254 245 240 236 236 235 234 230 228
262 263 264 259 245 246 244 250 255 261 268 268 267 262 252 245 239 229 223 229 243 250 253 256 269 273 270 277 274 267 251 242 232 236 236 236 230 218
263 274 289 303 283 269 258 255 259 264 266 266 265 263 260 256 249 238 229 224 227 238 246 246 254 258 267 273 273 267 261 253 244 241 234 231 229 226
258 273 289 291 288 275 257 255 257 256 254 257 259 260 260 259 256 250 241 233 233 238 243 236 237 244 247 258 266 266 267 263 253 250 248 240 229 214
263 279 282 273 267 263 265 258 243 241 245 252 256 259 260 260 258 253 251 243 244 246 240 235 233 234 244 249 254 260 258 257 256 252 248 246 241 231
282 272 271 271 268 266 261 255 249 243 240 245 252 258 261 262 262 258 255 253 253 255 255 246 237 232 234 239 250 253 256 256 250 251 252 253 249 243
250 265 269 270 271 274 276 276 270 263 259 255 252 255 260 265 267 268 268 266 265 264 262 260 261 263 257 247 231 244 250 253 253 250 248 253 257 250
244 262 265 267 270 273 275 279 281 280 277 275 269 265 263 265 266 267 265 265 262 259 257 253 250 253 262 266 251 224 236 247 250 250 248 246 252 252
251 262 267 272 278 281 286 289 290 293 290 285 282 281 279 277 273 270 267 264 264 263 261 254 247 244 246 257 265 259 235 237 243 248 250 251 254 254
273 278 283 286 291 293 292 290 291 289 288 288 286 282 282 281 279 277 275 274 270 269 267 261 252 247 251 256 260 260 252 235 231 236 239 244 254 257
283 291 297 300 300 300 302 300 298 293 290 284 281 281 281 280 282 281 276 274 270 268 269 269 268 260 250 251 258 264 266 260 241 238 239 235 235 242
295 301 304 302 302 303 303 301 301 299 298 296 294 291 290 287 282 279 280 277 275 273 273 273 271 263 257 252 256 261 266 267 260 248 248 242 238 242